TimeCDT,TemperatureF,Dew PointF,Humidity,Sea Level PressureIn,VisibilityMPH,Wind Direction,Wind SpeedMPH,Gust SpeedMPH,PrecipitationIn,Events,Conditions,WindDirDegrees,DateUTC
12:53 AM,53.1,51.1,93,30.11,10.0,Calm,Calm,-,N/A,,Clear,0,2013-09-20 05:53:00
1:53 AM,52.0,50.0,93,30.10,10.0,NNW,6.9,-,N/A,,Clear,330,2013-09-20 06:53:00
2:53 AM,51.1,48.9,92,30.10,10.0,NNW,6.9,-,N/A,,Clear,340,2013-09-20 07:53:00
3:53 AM,51.1,48.0,89,30.10,10.0,NW,6.9,-,N/A,,Clear,320,2013-09-20 08:53:00
4:53 AM,48.9,46.9,93,30.10,10.0,NW,5.8,-,N/A,,Clear,320,2013-09-20 09:53:00
5:53 AM,48.0,46.9,96,30.12,10.0,NNW,5.8,-,N/A,,Clear,330,2013-09-20 10:53:00
6:53 AM,48.0,46.0,93,30.13,9.0,NW,5.8,-,N/A,,Scattered Clouds,320,2013-09-20 11:53:00
7:53 AM,48.0,46.0,93,30.15,10.0,NNW,6.9,-,N/A,,Clear,340,2013-09-20 12:53:00
8:53 AM,53.1,48.0,83,30.15,10.0,NNW,4.6,-,N/A,,Clear,340,2013-09-20 13:53:00
9:53 AM,59.0,46.0,62,30.16,10.0,North,6.9,-,N/A,,Clear,10,2013-09-20 14:53:00
10:53 AM,62.1,44.1,52,30.16,10.0,Calm,Calm,-,N/A,,Clear,0,2013-09-20 15:53:00
11:53 AM,64.0,45.0,50,30.16,10.0,Calm,Calm,-,N/A,,Clear,0,2013-09-20 16:53:00
12:53 PM,66.9,45.0,45,30.13,10.0,Calm,Calm,-,N/A,,Clear,0,2013-09-20 17:53:00
1:53 PM,69.1,46.9,45,30.10,10.0,WNW,4.6,-,N/A,,Clear,290,2013-09-20 18:53:00
2:53 PM,72.0,48.0,43,30.07,10.0,SSW,5.8,-,N/A,,Clear,200,2013-09-20 19:53:00
3:53 PM,72.0,48.0,43,30.04,10.0,WNW,4.6,-,N/A,,Clear,290,2013-09-20 20:53:00
4:53 PM,73.9,46.0,37,30.03,10.0,Calm,Calm,-,N/A,,Clear,0,2013-09-20 21:53:00
5:53 PM,73.9,46.9,38,30.02,10.0,Calm,Calm,-,N/A,,Clear,0,2013-09-20 22:53:00
6:53 PM,73.9,46.9,38,30.01,10.0,Calm,Calm,-,N/A,,Clear,0,2013-09-20 23:53:00
7:53 PM,66.0,50.0,56,30.02,10.0,SE,3.5,-,N/A,,Clear,140,2013-09-21 00:53:00
8:53 PM,59.0,54.0,83,30.03,10.0,Calm,Calm,-,N/A,,Clear,0,2013-09-21 01:53:00
9:53 PM,60.1,50.0,69,30.02,10.0,South,4.6,-,N/A,,Clear,180,2013-09-21 02:53:00
10:53 PM,57.9,48.9,72,30.02,10.0,Calm,Calm,-,N/A,,Clear,0,2013-09-21 03:53:00
11:53 PM,57.0,48.9,74,30.02,10.0,SW,4.6,-,N/A,,Clear,220,2013-09-21 04:53:00